Time,TemperatureF,DewpointF,PressureIn,WindDirection,WindDirectionDegrees,WindSpeedMPH,WindSpeedGustMPH,Humidity,HourlyPrecipIn,Conditions,Clouds,dailyrainin,SoftwareType,DateUTC
2013-07-17 11:11:00,89.0,65.0,30.01,NW,315,8.0,13.0,45,0.00,,,0.00,,2013-07-17 16:11:00,
2013-07-17 11:22:00,89.0,65.0,30.01,NW,315,5.0,13.0,46,0.00,,,0.00,,2013-07-17 16:22:00,
2013-07-17 11:33:00,89.0,65.0,30.01,NW,315,5.0,13.0,46,0.00,,,0.00,,2013-07-17 16:33:00,
2013-07-17 11:42:00,89.0,65.0,30.01,NW,315,5.0,13.0,46,0.00,,,0.00,,2013-07-17 16:42:00,
2013-07-17 12:32:00,92.0,63.0,30.01,NW,315,0.0,2.0,39,0.00,,,0.00,,2013-07-17 17:32:00,
2013-07-17 14:11:00,93.0,63.0,30.00,NW,315,4.0,9.0,37,0.00,,,0.00,,2013-07-17 19:11:00,
2013-07-17 14:22:00,93.0,63.0,30.00,NW,315,4.0,9.0,37,0.00,,,0.00,,2013-07-17 19:22:00,
2013-07-17 19:11:00,96.0,61.0,29.90,North,360,0.0,1.0,32,0.00,,,0.00,,2013-07-18 00:11:00,
2013-07-17 19:22:00,96.0,61.0,29.90,North,360,0.0,1.0,32,0.00,,,0.00,,2013-07-18 00:22:00,
2013-07-17 19:33:00,93.0,62.0,29.91,North,360,0.0,0.0,36,0.00,,,0.00,,2013-07-18 00:33:00,
2013-07-17 19:43:00,94.0,64.0,29.91,North,360,0.0,0.0,37,0.00,,,0.00,,2013-07-18 00:43:00,
2013-07-17 19:52:00,94.0,64.0,29.91,North,360,0.0,0.0,37,0.00,,,0.00,,2013-07-18 00:52:00,
2013-07-17 20:01:00,92.0,63.0,29.91,West,270,0.0,0.0,39,0.00,,,0.00,,2013-07-18 01:01:00,
2013-07-17 20:11:00,92.0,63.0,29.91,West,270,0.0,0.0,39,0.00,,,0.00,,2013-07-18 01:11:00,
2013-07-17 20:22:00,89.0,64.0,29.91,NE,45,0.0,0.0,44,0.00,,,0.00,,2013-07-18 01:22:00,
2013-07-17 20:32:00,87.0,65.0,29.92,North,360,0.0,0.0,49,0.00,,,0.00,,2013-07-18 01:32:00,
2013-07-17 20:43:00,87.0,65.0,29.92,North,360,0.0,0.0,49,0.00,,,0.00,,2013-07-18 01:43:00,
2013-07-17 20:53:00,85.0,66.0,29.92,West,270,0.0,0.0,53,0.00,,,0.00,,2013-07-18 01:53:00,
2013-07-17 21:02:00,84.0,66.0,29.92,NW,315,0.0,0.0,55,0.00,,,0.00,,2013-07-18 02:02:00,
2013-07-17 21:11:00,83.0,66.0,29.92,NW,315,0.0,0.0,56,0.00,,,0.00,,2013-07-18 02:11:00,
2013-07-17 21:22:00,83.0,66.0,29.92,NW,315,0.0,0.0,56,0.00,,,0.00,,2013-07-18 02:22:00,
2013-07-17 21:32:00,83.0,66.0,29.92,NW,315,0.0,0.0,56,0.00,,,0.00,,2013-07-18 02:32:00,
2013-07-17 21:43:00,82.0,67.0,29.92,NW,315,0.0,0.0,61,0.00,,,0.00,,2013-07-18 02:43:00,
2013-07-17 21:52:00,81.0,67.0,29.92,North,360,0.0,0.0,63,0.00,,,0.00,,2013-07-18 02:52:00,
2013-07-17 22:01:00,80.0,67.0,29.93,North,360,0.0,0.0,65,0.00,,,0.00,,2013-07-18 03:01:00,
2013-07-17 22:11:00,80.0,67.0,29.93,North,360,0.0,0.0,65,0.00,,,0.00,,2013-07-18 03:11:00,
2013-07-17 22:22:00,80.0,67.0,29.93,North,360,0.0,0.0,65,0.00,,,0.00,,2013-07-18 03:22:00,
2013-07-17 22:32:00,80.0,67.0,29.93,North,360,0.0,0.0,65,0.00,,,0.00,,2013-07-18 03:32:00,
2013-07-17 22:43:00,79.0,68.0,29.94,North,360,0.0,0.0,70,0.00,,,0.00,,2013-07-18 03:43:00,
2013-07-17 22:52:00,78.0,67.0,29.94,North,360,0.0,0.0,70,0.00,,,0.00,,2013-07-18 03:52:00,
2013-07-17 23:02:00,78.0,67.0,29.94,North,360,0.0,0.0,70,0.00,,,0.00,,2013-07-18 04:02:00,
2013-07-17 23:12:00,78.0,67.0,29.94,North,360,0.0,0.0,70,0.00,,,0.00,,2013-07-18 04:12:00,
2013-07-17 23:22:00,78.0,67.0,29.94,North,360,0.0,0.0,70,0.00,,,0.00,,2013-07-18 04:22:00,
2013-07-17 23:32:00,78.0,69.0,29.94,NE,45,0.0,0.0,73,0.00,,,0.00,,2013-07-18 04:32:00,
2013-07-17 23:43:00,78.0,69.0,29.94,NE,45,0.0,0.0,73,0.00,,,0.00,,2013-07-18 04:43:00,
2013-07-17 23:52:00,78.0,69.0,29.94,NE,45,0.0,0.0,73,0.00,,,0.00,,2013-07-18 04:52:00,